Regional Weather Roundup
Issued by NWS Sioux Falls, SD

Home | Current Version | Previous Version | Text Only | Print | Product List | Glossary Off
Versions: 1 2 3 4 5 6 7 8 9 10 11 12 13 14 15 16 17 18 19 20 21 22 23 24 25 26 27 28 29 30 31 32 33 34 35 36 37 38 39 40 41 42 43 44 45 46 47 48 49 50

000
ASUS43 KFSD 241002
RWRFSD

WEATHER ROUNDUP FOR SE SOUTH DAKOTA/SW MINNESOTA/NW IOWA
NATIONAL WEATHER SERVICE SIOUX FALLS SD
500 AM CDT WED MAY 24 2017

NOTE: "FAIR" INDICATES FEW OR NO CLOUDS BELOW 12,000 FEET WITH NO
SIGNIFICANT WEATHER AND OR OBSTRUCTIONS TO VISIBILITY.


SDZ038>040-050-052>070-241100-
SOUTHEAST SOUTH DAKOTA

CITY           SKY/WX    TMP DP  RH WIND       PRES   REMARKS
BROOKINGS      PTCLDY    40  39  97 NW5       29.84S
CHAMBERLAIN    NOT AVBL
HURON          CLEAR     34  34 100 NW3       29.86F FOG
MADISON        FAIR      41  41 100 N9        29.84S
MITCHELL       CLEAR     40  39  97 NW6       29.85F
SIOUX FALLS    CLEAR     43  43 100 N6        29.82S
WINNER         FAIR      38  36  92 SW6       29.87F
YANKTON        CLEAR     43  41  93 NW10      29.83F
$$

MNZ071-072-080-081-089-090-097-098-241100-
SOUTHWEST MINNESOTA

CITY           SKY/WX    TMP DP  RH WIND       PRES   REMARKS
FAIRMONT       CLEAR     45  44  97 N12       29.77S
JACKSON        CLEAR     43  43 100 CALM      29.78F
MARSHALL       PTCLDY    44  44 100 N8        29.82F
MONTEVIDEO     PTCLDY    45  45 100 N6        29.83S
PIPESTONE      CLOUDY    46  43  87 N5        29.81F
REDWOOD FALLS  CLEAR     46  44  93 N7        29.80S
TRACY          MOCLDY    46  45  99 N7        29.82S
WINDOM         CLEAR     45  43  93 N8        29.79S
WORTHINGTON    CLEAR     43  42  97 N9        29.80S
$$

IAZ001>003-012>014-020>022-031-032-NEZ013-014-SDZ071-241100-
NORTHWEST IOWA

CITY           SKY/WX    TMP DP  RH WIND       PRES   REMARKS
CHEROKEE       CLEAR     44  44 100 N6        29.78S
DENISON        PTCLDY    46  45  93 NW6       29.77S
ESTHERVILLE    CLEAR     44  44 100 N10       29.76F
LE MARS        CLEAR     46  45  93 CALM      29.81S
ORANGE CITY    CLEAR     45  45 100 N7        29.79F
SHELDON        CLEAR     43  43 100 NW8         N/A
SIOUX CITY     CLEAR     45  45 100 NW9       29.80F
SPENCER        CLEAR     46  44  93 N10       29.77S
STORM LAKE     CLEAR     46  45  93 N13       29.76S
$$

ABBREVIATIONS USED IN REMARKS
   TC - TEMPERATURE IN CELSIUS
  WCI - WIND CHILL INDEX
   HX - HEAT INDEX
  VSB - VISIBILITY





USA.gov is the U.S. government's official web portal to all federal, state and local government web resources and services.